KROZINGEN Weather Reports


time (UTC)temp
C
wind
direction
speed
KPH
gust
KPH
rain 1hr
cm
rain 24hr
cm
rain mn
cm
humidity
%
barometer
mb
20260506000211 11 203 3.2 0.0 0.00 0.00 0.00 86 1008.9
20260505233209 12 229 1.6 0.0 0.00 0.00 0.00 85 1009.0
20260505230209 12 128 1.6 0.0 0.00 0.00 0.00 85 1009.1
20260505223210 12 131 3.2 0.0 0.00 0.00 0.00 86 1009.3
20260505220209 12 235 3.2 0.0 0.00 0.00 0.33 86 1009.5
20260505213211 12 228 1.6 0.0 0.00 0.00 0.33 86 1009.3
20260505210215 12 140 3.2 0.0 0.00 0.00 0.33 86 1009.5
20260505203209 13 143 8.0 0.0 0.00 0.00 0.33 86 1009.5
20260505200210 13 127 1.6 0.0 0.00 0.00 0.33 88 1009.2
20260505193209 13 139 3.2 0.0 0.00 0.00 0.33 86 1009.0
20260505190215 14 207 4.8 0.0 0.00 0.00 0.33 83 1008.8
20260505183212 15 143 4.8 0.0 0.00 0.00 0.33 85 1008.3
20260505180211 16 191 14.5 0.0 0.00 0.00 0.33 81 1008.4
20260505173210 17 127 6.4 0.0 0.00 0.00 0.33 73 1008.2
20260505170210 18 226 12.9 0.0 0.00 0.00 0.33 69 1008.1
20260505163211 17 123 12.9 0.0 0.00 0.00 0.33 74 1008.2
20260505153210 15 271 8.0 0.0 0.00 0.00 0.33 90 1008.2
20260505150215 14 217 6.4 0.0 0.00 0.00 0.33 90 1008.2
20260505140210 18 216 4.8 0.0 0.00 0.00 0.00 69 1007.7
20260505130210 17 30 8.0 0.0 0.00 0.00 0.00 73 1008.3
20260505123210 17 13 3.2 0.0 0.00 0.00 0.00 76 1008.5
20260505120210 16 252 6.4 0.0 0.00 0.00 0.00 80 1008.9
20260505113210 16 266 4.8 0.0 0.00 0.00 0.00 80 1009.2
20260505110211 16 229 6.4 0.0 0.00 0.00 0.00 80 1009.2
20260505100212 15 331 1.6 0.0 0.00 0.00 0.00 84 1009.3
20260505093212 15 349 1.6 0.0 0.00 0.00 0.00 83 1009.1
20260505090211 15 34 3.2 0.0 0.00 0.00 0.00 87 1009.5
20260505083211 15 51 1.6 0.0 0.00 0.00 0.00 86 1009.8
20260505080210 15 30 1.6 0.0 0.00 0.00 0.00 85 1009.9
20260505073210 14 250 1.6 0.0 0.00 0.00 0.00 89 1010.1
20260505070211 13 238 3.2 0.0 0.00 0.00 0.00 91 1010.2
20260505063211 12 273 3.2 0.0 0.00 0.00 0.00 92 1010.3
20260505060212 12 198 0.0 0.0 0.00 0.00 0.00 93 1010.5
20260505053211 12 229 1.6 0.0 0.00 0.00 0.00 94 1010.5
20260505050211 11 227 1.6 0.0 0.00 0.00 0.00 94 1010.4
20260505040210 11 124 3.2 0.0 0.00 0.00 0.00 92 1010.4
20260505033211 11 300 1.6 0.0 0.00 0.00 0.00 93 1010.3
20260505030213 11 185 8.0 0.0 0.00 0.00 0.00 92 1010.4
20260505023211 11 117 1.6 0.0 0.00 0.00 0.00 93 1010.8
20260505020211 11 117 0.0 0.0 0.00 0.00 0.00 93 1011.1
20260505013211 11 241 0.0 0.0 0.00 0.00 0.00 93 1011.4
20260505010211 11 241 1.6 0.0 0.00 0.00 0.00 92 1011.6
20260505003208 12 127 3.2 0.0 0.00 0.00 0.00 90 1011.9